[[{"header":{"parameterUnit":"m.s-1","parameterCategory":1,"la1":30.2991,"la2":30.254,"lo1":-89.0895,"lo2":-89.0444,"dy":0.0017,"dx":0.0017,"nx":28,"ny":28,"refTime":"2024-05-16T03:00:00:Z","depth":0,"parameterNumber":2,"parameterNumberName":"U-component_of_WINDS"},"data":[0,0,0,0,0,0,0,0,0,0,0,0,0,0,0,0,0,0,0,0,0,0,0,0,0,0,0,0,0,0,0,0,0,0,0,0,0,0,0,0,0,0,0,0,0,0,0,0,0,0,0,0,0,0,0,0,0,0,1.3482,1.3481,0,1.3454,1.3454,1.3453,1.3388,1.3387,1.3385,1.3384,1.3357,1.3358,1.3358,0,0,0,0,0,0,0,0,0,0,0,0,0,1.3479,1.3479,1.3482,1.3481,1.3481,1.3454,1.3454,1.3453,1.3388,1.3387,1.3385,1.3383,1.3357,1.3358,1.3358,0,0,0,0,0,0,0,0,0,0,0,0,0,1.3469,1.348,1.3482,1.3445,1.3442,1.3454,1.3454,1.3453,1.3389,1.3387,1.3385,1.3383,1.3357,1.3358,1.3359,1.3405,0,0,1.3361,1.3361,0,0,0,0,0,0,0,0,1.347,1.3469,1.3451,1.3448,1.3444,1.3422,1.3443,1.3437,1.3389,1.3409,1.3384,1.3382,1.3381,1.3379,1.3379,1.3404,1.3402,1.3361,1.3362,1.3362,1.3362,0,0,0,0,0,0,0,1.347,1.347,1.3471,1.3451,1.3446,1.3431,1.3427,1.3442,1.3407,1.3407,1.3402,1.34,1.3378,1.3378,1.3378,1.3402,1.3361,1.3362,1.3362,1.3363,1.3463,1.3465,0,0,0,0,0,0,1.3476,1.3471,1.3472,1.347,1.3452,1.3432,1.3428,1.3431,1.3406,1.34,1.3401,1.3397,1.3378,1.3377,1.3377,1.3428,1.3362,1.3363,1.3363,1.346,1.3463,1.3465,0,0,0,0,0,0,1.3476,1.3477,1.3473,1.3469,1.3467,1.3434,1.3439,1.3432,1.3432,1.3402,1.3396,1.3408,1.3376,1.3375,1.3398,1.3427,1.3363,1.3364,1.3458,1.3461,1.3464,1.3533,0,0,0,0,0,0,1.3477,1.3477,1.3494,1.347,1.3468,1.3495,1.344,1.3433,1.3433,1.3427,1.3406,1.3401,1.3374,1.3397,1.3399,1.3427,1.3365,1.3455,1.3459,1.3463,1.3528,1.3538,1.3547,0,0,0,0,0,1.3477,1.3515,1.3495,1.3496,1.3488,1.3496,1.3495,1.3463,1.3436,1.3452,1.3433,1.3401,1.3423,1.34,1.3401,1.343,1.3453,1.3458,1.3463,1.3524,1.3536,1.3547,0,0,0,0,0,0,1.3544,1.3511,1.3489,1.3521,1.3512,1.3485,1.3506,1.3478,1.3477,1.3471,1.3432,1.3428,1.3456,1.3445,1.342,1.3473,1.3433,1.3438,1.3479,1.349,1.35,1.3502,1.3365,0,0,0,0,0,1.3563,1.3572,1.3543,1.3573,1.357,1.3539,1.3541,1.3517,1.3507,1.3503,1.3485,1.3477,1.3481,1.3485,1.3488,1.3526,1.3521,1.3547,1.3556,1.3564,1.3569,1.3588,1.3599,1.3481,1.3481,1.3481,0,0,1.3602,1.3585,1.3593,1.3587,1.3577,1.3587,1.3536,1.3549,1.3556,1.3505,1.3525,1.3512,1.35,1.353,1.3543,1.3522,1.36,1.357,1.3577,1.3577,1.3594,1.3605,1.3615,1.3485,1.3484,1.3483,0,0,1.3677,1.3665,1.3689,1.368,1.3666,1.3645,1.3651,1.3628,1.3617,1.3637,1.3598,1.3607,1.3616,1.3608,1.3606,1.3678,1.3649,1.368,1.3729,1.3748,1.3758,1.3766,1.3791,1.3801,1.3685,1.3686,1.3686,0,1.3727,1.374,1.3705,1.372,1.3719,1.3672,1.3696,1.369,1.3677,1.3678,1.3654,1.3664,1.3653,1.3681,1.3698,1.3698,1.3704,1.3682,1.3759,1.3767,1.3774,1.3797,1.3807,1.3689,1.3689,1.3689,1.3688,0,1.3802,1.3812,1.3833,1.3821,1.3822,1.3842,1.381,1.3816,1.3792,1.3774,1.3794,1.3779,1.3777,1.3782,1.376,1.3807,1.3794,1.3766,1.3725,1.3789,1.3811,1.382,1.3695,1.3694,1.3693,1.3692,0,0,1.3918,1.3887,1.3895,1.3889,1.387,1.3877,1.3895,1.3893,1.3898,1.3892,1.3905,1.3914,1.3887,1.3885,1.3861,1.3878,1.3935,1.3847,1.3846,1.3863,1.3986,1.4007,1.4019,1.3916,1.3918,1.3919,1.3987,0,1.3989,1.4016,1.3986,1.402,1.4029,1.3985,1.4,1.399,1.3974,1.3979,1.396,1.3967,1.3931,1.3929,1.3944,1.3925,1.396,1.392,1.3929,1.3929,1.3932,1.403,1.4052,1.4118,1.3995,1.3997,1.3998,0,1.4074,1.407,1.4106,1.4084,1.4086,1.4101,1.4096,1.4102,1.409,1.4076,1.4073,1.4044,1.4061,1.4021,1.4043,1.4017,1.4018,1.401,1.4012,1.4011,1.3967,1.4031,1.4138,1.4147,1.4011,1.401,1.4009,0,1.4155,1.4159,1.418,1.4177,1.4152,1.4163,1.4153,1.4139,1.414,1.4136,1.4136,1.4135,1.4134,1.4134,1.4106,1.408,1.4131,1.4089,1.4121,1.4121,1.4133,1.4133,1.4241,1.4135,1.4135,1.4135,1.4135,0,1.4236,1.4259,1.4216,1.4229,1.4254,1.4219,1.4244,1.423,1.4218,1.4228,1.419,1.42,1.4162,1.4169,1.4147,1.4168,1.4168,1.4158,1.4152,1.4161,1.4162,1.4161,1.4156,1.4137,1.4137,1.4136,1.4136,0,1.433,1.4302,1.4323,1.4297,1.4292,1.4311,1.4289,1.4301,1.4282,1.4295,1.4296,1.4266,1.4271,1.4243,1.4244,1.4229,1.4261,1.4247,1.4265,1.426,1.4293,1.429,1.4404,1.4417,1.4304,1.4305,1.4306,0,1.4383,1.44,1.4376,1.438,1.4372,1.4378,1.4379,1.4345,1.4347,1.4334,1.4347,1.4349,1.4349,1.436,1.4339,1.4339,1.4325,1.4365,1.4325,1.4333,1.4325,1.4324,1.4325,1.4373,1.4374,1.4375,1.4376,0,1.448,1.4466,1.4467,1.4465,1.4466,1.4462,1.4456,1.4461,1.4424,1.4429,1.4433,1.4433,1.4434,1.4436,1.4432,1.4423,1.4394,1.4389,1.4396,1.4406,1.4415,1.441,1.4287,1.4387,1.4386,1.4385,1.4384,1.4384,1.4555,1.4568,1.4553,1.4556,1.4548,1.4543,1.4552,1.4534,1.4537,1.4534,1.4514,1.4523,1.451,1.4502,1.4495,1.4501,1.4482,1.4493,1.4495,1.4498,1.4504,1.4414,1.4501,1.45,1.45,1.45,1.4499,0,1.465,1.4638,1.4641,1.4633,1.4636,1.4608,1.46,1.4604,1.4612,1.4602,1.4603,1.4608,1.4611,1.459,1.4589,1.4599,1.4585,1.46,1.4598,1.4597,1.4521,1.4515,1.4611,1.4611,1.461,1.461,1.461,1.461,1.4699,1.4719,1.4702,1.4718,1.4706,1.4713,1.4711,1.4706,1.4698,1.4706,1.4708,1.4694,1.468,1.4678,1.468,1.4673,1.4675,1.4694,1.4683,1.4613,1.4602,1.4592,1.4585,1.4695,1.4695,1.4758,1.4758,1.4759]},{"header":{"parameterUnit":"m.s-1","parameterCategory":1,"la1":30.2991,"la2":30.254,"lo1":-89.0895,"lo2":-89.0444,"dy":0.0017,"dx":0.0017,"nx":28,"ny":28,"refTime":"2024-05-16T03:00:00:Z","depth":0,"parameterNumber":3,"parameterNumberName":"V-component_of_WINDS"},"data":[0,0,0,0,0,0,0,0,0,0,0,0,0,0,0,0,0,0,0,0,0,0,0,0,0,0,0,0,0,0,0,0,0,0,0,0,0,0,0,0,0,0,0,0,0,0,0,0,0,0,0,0,0,0,0,0,0,0,5.7434,5.7434,0,5.7465,5.7465,5.7465,5.7409,5.7407,5.7405,5.7403,5.743,5.7433,5.7435,0,0,0,0,0,0,0,0,0,0,0,0,0,5.7321,5.7324,5.7434,5.7434,5.7434,5.7464,5.7465,5.7465,5.7409,5.7407,5.7404,5.7402,5.7429,5.7432,5.7435,0,0,0,0,0,0,0,0,0,0,0,0,0,5.7363,5.7324,5.7434,5.741,5.7408,5.7464,5.7465,5.7465,5.741,5.7407,5.7404,5.7401,5.7429,5.7432,5.7436,5.7515,0,0,5.7447,5.7449,0,0,0,0,0,0,0,0,5.736,5.7367,5.7413,5.7412,5.741,5.743,5.7435,5.7482,5.741,5.7409,5.7403,5.74,5.7432,5.7435,5.7447,5.7516,5.7517,5.7447,5.745,5.7451,5.7452,0,0,0,0,0,0,0,5.7358,5.7365,5.7446,5.7414,5.7412,5.7396,5.7399,5.7444,5.7436,5.7409,5.7405,5.741,5.7431,5.7444,5.7447,5.7517,5.7447,5.7451,5.7453,5.7454,5.7653,5.7655,0,0,0,0,0,0,5.7358,5.7363,5.7445,5.7447,5.7378,5.7401,5.7404,5.7426,5.7435,5.7434,5.7412,5.7407,5.7439,5.7443,5.7448,5.7542,5.7451,5.7455,5.7457,5.765,5.7653,5.7657,0,0,0,0,0,0,5.7356,5.7366,5.7443,5.7404,5.7413,5.7406,5.7431,5.7428,5.7441,5.7438,5.7435,5.7427,5.7437,5.7443,5.7499,5.7542,5.7456,5.746,5.7646,5.7651,5.7655,5.7729,0,0,0,0,0,0,5.7353,5.7366,5.7397,5.7405,5.7415,5.7495,5.7434,5.7431,5.7449,5.7442,5.7451,5.745,5.7435,5.7494,5.7503,5.7545,5.7463,5.7642,5.7648,5.7653,5.7723,5.7736,5.7747,0,0,0,0,0,5.7349,5.7415,5.7399,5.7409,5.7454,5.7498,5.7503,5.7486,5.7452,5.7483,5.748,5.745,5.7536,5.75,5.7509,5.7554,5.7639,5.7646,5.7653,5.7717,5.7733,5.7746,0,0,0,0,0,0,5.741,5.7416,5.7398,5.7469,5.7484,5.7488,5.7526,5.7503,5.7527,5.752,5.7496,5.7499,5.7559,5.7562,5.7522,5.7631,5.7581,5.7591,5.7627,5.7642,5.7654,5.7652,5.7466,0,0,0,0,0,5.7433,5.747,5.7472,5.7534,5.7543,5.7534,5.7552,5.7538,5.7551,5.7557,5.7558,5.7572,5.7601,5.7622,5.7649,5.7723,5.7724,5.7758,5.777,5.7779,5.7788,5.7827,5.7842,5.7679,5.7679,5.7679,0,0,5.7478,5.7485,5.751,5.7546,5.7556,5.7594,5.7539,5.7581,5.7608,5.7563,5.7616,5.7618,5.7631,5.7696,5.7725,5.77,5.7833,5.7788,5.7796,5.7799,5.7836,5.7851,5.7865,5.7684,5.7683,5.7682,0,0,5.758,5.759,5.7643,5.7654,5.7671,5.7664,5.7677,5.7686,5.7686,5.7739,5.7706,5.7737,5.7789,5.78,5.7813,5.7919,5.7892,5.7928,5.7991,5.803,5.8043,5.8054,5.8092,5.8106,5.7937,5.7937,5.7937,0,5.7634,5.7691,5.7673,5.7718,5.7735,5.7697,5.775,5.7761,5.7785,5.7797,5.7769,5.7834,5.784,5.7907,5.7934,5.7945,5.7958,5.7928,5.8042,5.8054,5.8064,5.81,5.8115,5.7941,5.7941,5.794,5.794,0,5.7757,5.7797,5.7837,5.7864,5.7885,5.7933,5.7921,5.7944,5.7928,5.7924,5.7979,5.7985,5.8013,5.8028,5.8012,5.8094,5.8078,5.8047,5.7997,5.8084,5.8118,5.8132,5.7947,5.7946,5.7945,5.7943,0,0,5.7899,5.7915,5.793,5.7942,5.7957,5.7986,5.8033,5.8062,5.8083,5.81,5.8138,5.8183,5.8154,5.8168,5.8153,5.8187,5.8271,5.8151,5.8151,5.8174,5.8362,5.8386,5.8403,5.8253,5.8256,5.8258,5.8361,0,5.8001,5.8083,5.8068,5.8148,5.8184,5.8149,5.8189,5.8202,5.8199,5.8229,5.8225,5.8258,5.8217,5.8226,5.8257,5.8255,5.8309,5.8247,5.8288,5.829,5.8287,5.8421,5.8446,5.8544,5.8374,5.8377,5.8378,0,5.8131,5.8156,5.824,5.825,5.8264,5.8301,5.8327,5.8356,5.8369,5.8364,5.8381,5.8359,5.8404,5.8353,5.8414,5.8372,5.8388,5.8389,5.8392,5.8396,5.834,5.8429,5.8574,5.8589,5.8399,5.8397,5.8396,0,5.8228,5.8281,5.8338,5.8349,5.8362,5.8389,5.8395,5.8406,5.8424,5.8446,5.8458,5.8483,5.8498,5.8518,5.8503,5.8468,5.8567,5.8515,5.8564,5.8565,5.8587,5.8586,5.8739,5.8596,5.8596,5.8596,5.8596,0,5.8344,5.8397,5.8382,5.8417,5.8475,5.8456,5.8514,5.8515,5.8525,5.8559,5.8529,5.8561,5.8539,5.8569,5.8558,5.8611,5.8617,5.8614,5.8611,5.8618,5.8618,5.8628,5.8621,5.86,5.8599,5.8598,5.8598,0,5.8462,5.8454,5.8514,5.8522,5.8525,5.8567,5.8573,5.8605,5.86,5.8644,5.8652,5.8645,5.8678,5.8666,5.8701,5.8693,5.8761,5.8748,5.8757,5.8754,5.8805,5.8801,5.8969,5.899,5.8834,5.8836,5.8837,0,5.8537,5.8577,5.8589,5.8611,5.862,5.8655,5.8674,5.8656,5.8678,5.8696,5.8726,5.8758,5.8782,5.8838,5.8834,5.8861,5.8849,5.8906,5.8853,5.8859,5.8851,5.8849,5.8853,5.8917,5.8919,5.892,5.8922,0,5.8671,5.8666,5.8696,5.8725,5.8749,5.877,5.8789,5.8808,5.8791,5.8816,5.8851,5.887,5.8907,5.8939,5.8963,5.8968,5.8942,5.8938,5.8951,5.8959,5.8963,5.8963,5.8787,5.8935,5.8933,5.8932,5.8932,5.8931,5.877,5.8805,5.8819,5.8854,5.8866,5.8884,5.8915,5.8915,5.8945,5.8975,5.8962,5.9003,5.9014,5.9044,5.9053,5.9083,5.9061,5.9079,5.9084,5.9089,5.9097,5.8958,5.9087,5.9087,5.9087,5.9086,5.9086,0,5.8904,5.8912,5.8944,5.8972,5.8999,5.8973,5.8992,5.9016,5.9053,5.9067,5.9092,5.9132,5.9163,5.9162,5.919,5.9215,5.9204,5.9223,5.9221,5.9223,5.9115,5.9101,5.9231,5.9231,5.9231,5.9231,5.9231,5.9231,5.8977,5.9034,5.903,5.9093,5.9099,5.9141,5.9154,5.917,5.9181,5.9228,5.9254,5.9254,5.9261,5.929,5.9317,5.9315,5.9327,5.9351,5.9346,5.9245,5.923,5.9217,5.9204,5.9354,5.9354,5.9451,5.9452,5.9453]}]]